Wind_Speed
6 4 3 7 4 8 5 10 8 11 12 16 18 18 16 23 20 21 25 25 23 23 24 20 21 26 27 27 25 27 34 33 34 45 45 41 38 39 34 31 30 29 24
8 3 2 5 3 3 2 6 5 8 13 15 16 16 17 17 20 21 22 26 29 24 26 24 24 20 24 28 27 29 27 31 35 36 43 42 42 37 38 32 30 30 26
15 11 8 6 9 5 2 5 7 10 17 19 18 19 15 16 9 12 16 18 23 24 21 21 20 20 22 23 27 26 27 30 29 32 37 37 40 41 36 36 30 29 27
19 17 12 9 9 8 5 5 5 5 9 11 14 15 17 19 11 15 13 19 21 23 20 18 20 23 24 32 28 28 28 30 29 29 29 32 38 39 35 35 33 29 27
20 21 20 17 12 11 9 10 9 10 7 10 13 14 17 19 14 10 11 14 14 15 19 21 22 20 22 27 33 27 27 25 30 27 29 29 32 34 34 33 31 28 25
24 24 18 16 13 14 15 13 13 13 13 16 11 14 14 19 18 17 11 17 17 20 19 22 24 23 23 25 28 32 27 21 27 24 25 26 26 30 32 32 28 27 24
19 21 22 20 19 16 17 17 17 18 16 16 15 14 19 19 13 15 11 13 17 21 18 22 24 23 21 22 23 25 28 21 21 22 25 25 27 25 27 30 27 24 23
23 21 21 23 21 20 19 20 18 20 19 19 20 21 19 21 20 16 15 14 19 22 21 19 21 20 20 22 22 24 29 24 24 22 26 23 26 26 23 24 25 22 21
30 27 23 25 24 23 21 19 18 19 21 21 22 23 23 21 22 20 17 16 18 21 19 16 19 21 20 18 26 22 24 21 21 19 23 24 25 25 20 19 21 22 18
29 30 27 27 28 26 23 23 23 25 27 26 28 25 26 23 22 23 24 21 21 22 18 13 16 23 14 15 21 26 22 19 20 20 21 22 21 25 16 14 19 18 18
26 30 31 31 31 30 31 31 31 34 31 31 30 31 33 31 29 30 23 24 25 22 19 16 17 19 19 15 16 24 18 15 20 23 22 20 21 22 16 11 14 16 15
24 26 28 31 33 35 37 38 35 31 27 29 31 34 32 34 34 32 28 26 28 25 19 17 17 17 18 12 15 17 17 24 21 19 19 21 21 19 24 10 13 13 14
22 24 25 27 29 32 33 33 32 30 28 30 33 31 29 29 29 31 30 30 28 27 24 23 22 24 20 21 17 14 21 17 28 25 23 22 18 13 17 12 13 13 12
17 19 20 20 21 23 22 22 20 19 17 25 27 20 23 27 31 29 27 30 29 28 25 26 28 27 26 25 21 15 20 16 17 24 23 25 19 17 13 14 14 13 13
24 22 21 22 22 21 19 20 16 12 11 35 31 29 28 31 30 31 29 26 27 21 25 28 31 30 27 26 23 21 16 29 20 12 19 23 23 17 18 12 11 17 17
28 30 32 31 29 28 27 22 22 28 26 28 39 33 34 40 34 35 33 29 29 26 26 25 29 35 27 30 29 23 20 26 28 24 19 21 24 22 21 21 19 13 11
22 24 29 35 36 36 34 30 28 35 34 38 39 38 43 44 41 46 42 38 35 33 33 29 28 35 35 30 34 30 27 25 28 27 25 25 24 24 23 23 24 19 17
25 26 28 28 30 33 37 40 42 44 42 42 42 42 42 48 46 45 44 42 34 33 34 34 33 30 34 38 38 39 33 32 33 35 29 27 27 24 24 26 23 19 19
25 29 31 32 32 33 36 37 41 45 48 50 52 50 47 50 52 55 52 46 41 35 40 40 38 37 36 35 36 39 38 40 43 37 35 34 35 28 25 32 26 21 17
27 23 30 38 37 37 39 38 39 43 45 48 51 54 58 60 60 60 61 59 54 47 43 43 43 44 48 48 48 48 49 49 46 49 50 48 44 38 33 31 32 26 23
31 34 40 47 48 39 39 45 46 42 43 48 51 52 53 56 57 59 60 61 61 59 51 48 49 53 52 53 54 56 54 53 52 52 54 53 50 44 34 34 33 31 26
48 53 59 54 51 42 42 42 45 52 53 50 49 53 56 57 59 61 63 64 65 62 59 58 56 60 58 54 54 54 57 58 56 57 58 57 54 52 48 43 40 38 33
50 53 51 42 43 42 44 42 38 43 51 58 60 57 56 56 59 62 65 66 68 69 69 65 67 68 70 63 60 56 57 59 59 58 55 56 60 58 57 51 47 43 39
51 54 51 54 68 53 43 47 38 39 45 50 56 62 64 65 62 61 63 65 69 72 72 71 73 74 69 67 68 65 66 61 61 59 61 58 60 60 60 59 53 49 44
61 62 66 75 71 60 57 59 63 64 62 50 53 58 59 60 62 67 67 68 71 72 73 73 73 77 76 74 69 68 69 67 64 63 61 62 60 62 61 59 59 55 51
68 74 73 72 68 63 61 69 73 76 77 79 76 69 69 71 71 73 72 74 74 74 74 75 76 76 77 75 75 71 71 70 69 67 65 63 63 64 65 64 63 60 58
Wind_Direction
224 262 299 174 92 128 107 40 47 36 21 18 16 32 24 20 29 16 20 22 19 22 25 27 33 30 35 34 33 41 28 32 23 25 27 32 30 30 29 32 32 32 35
241 251 272 195 198 155 248 329 3 18 3 356 354 358 11 42 20 7 4 1 359 20 21 15 27 26 25 28 28 35 39 28 28 13 19 25 31 28 29 30 32 32 33
244 264 271 240 231 228 267 4 4 6 355 345 339 338 349 343 334 346 338 343 351 4 7 14 13 21 20 14 18 23 25 23 10 19 11 22 22 27 27 28 30 34 34
251 260 257 281 257 257 282 278 303 307 309 296 332 338 345 349 351 337 320 334 351 10 8 9 17 14 9 8 11 14 24 10 17 14 11 14 18 20 26 27 26 32 39
256 262 266 264 253 241 255 267 262 310 299 304 321 334 344 346 357 4 338 344 6 357 359 4 11 10 14 3 7 10 12 4 8 13 20 17 13 17 18 25 26 27 39
253 259 265 270 264 262 264 268 263 292 287 295 312 330 344 344 341 345 9 2 357 357 349 359 2 9 8 8 3 6 7 2 353 352 9 18 17 13 15 12 23 28 34
255 257 262 255 260 263 268 279 277 286 299 305 304 306 322 319 325 333 338 332 323 339 330 349 1 6 8 9 17 8 11 4 353 349 347 351 6 10 9 6 14 27 30
260 264 261 249 253 259 270 275 274 275 291 299 302 301 308 309 316 317 310 319 325 328 328 334 352 8 5 12 13 17 3 19 12 8 343 337 344 355 4 359 11 21 31
253 258 258 250 255 258 259 264 265 276 284 289 296 302 304 301 299 305 290 287 309 310 324 327 312 338 355 355 7 7 4 353 355 10 14 6 347 349 357 352 1 11 24
252 251 255 258 258 252 254 261 273 278 283 283 284 290 296 300 301 300 299 285 300 312 309 309 312 314 343 348 343 331 327 355 355 0 0 1 355 346 346 357 345 2 12
261 259 259 260 259 255 260 269 275 280 280 279 282 283 288 292 291 292 285 282 290 299 302 292 265 293 307 331 320 313 329 344 346 355 4 1 0 352 355 357 345 350 351
265 264 264 263 263 264 268 272 278 278 283 279 285 291 286 285 288 288 282 275 279 290 290 275 275 287 291 284 294 306 331 343 342 338 342 349 353 347 350 343 337 338 333
271 271 271 271 271 271 274 277 278 282 288 286 279 278 285 286 283 282 280 274 275 277 280 273 276 279 285 284 275 306 288 331 332 332 334 333 345 351 347 356 359 327 321
295 285 279 278 282 278 276 281 278 279 293 307 284 274 283 288 294 293 287 276 271 272 266 263 266 269 275 283 275 260 261 279 324 324 322 319 321 328 348 342 8 5 302
286 280 277 280 284 279 276 283 282 253 326 282 271 260 271 272 280 288 282 285 274 269 266 254 260 267 273 271 267 278 250 253 273 292 297 301 304 319 319 326 333 344 10
290 287 281 278 278 277 277 276 268 262 258 261 258 261 272 273 266 271 280 278 272 268 261 258 263 261 263 260 271 268 248 256 256 265 272 290 294 289 294 307 323 333 331
305 300 288 281 280 280 277 270 261 267 261 254 265 267 271 271 270 268 267 275 271 272 268 260 269 257 252 253 271 263 254 246 250 252 262 274 289 297 284 299 299 307 308
332 323 316 308 299 290 279 272 266 266 264 268 263 260 264 264 268 279 272 270 271 262 259 271 274 266 256 260 264 263 257 247 252 256 262 268 278 285 284 289 296 298 305
329 330 331 327 315 302 295 287 278 270 268 264 262 262 261 258 269 269 277 272 268 269 258 262 268 266 266 261 263 268 264 258 255 253 254 257 271 266 267 275 284 290 280
331 331 332 331 321 315 310 301 289 282 278 274 271 268 264 262 264 266 270 272 271 271 266 263 262 260 262 265 263 266 266 268 260 255 253 255 262 262 261 263 275 274 273
323 324 323 327 316 311 311 307 302 290 281 279 276 271 270 270 268 268 266 265 266 268 265 263 261 262 263 263 266 266 263 262 263 258 250 248 254 253 254 259 267 264 264
311 315 321 327 314 317 313 307 301 298 297 290 283 277 273 271 270 267 266 266 265 260 260 266 265 266 265 263 261 259 260 263 265 263 253 248 250 248 251 256 258 260 256
304 306 314 317 314 314 322 316 308 300 293 293 292 288 283 275 271 270 269 267 265 264 262 263 265 264 262 263 264 261 259 257 259 258 260 247 247 248 253 252 251 255 255
300 306 305 308 313 308 329 334 322 322 307 290 291 287 284 286 281 273 271 270 268 266 264 263 263 263 262 260 259 260 257 257 258 253 252 251 249 248 248 250 249 248 249
290 294 298 306 309 306 304 321 327 323 319 313 299 296 290 281 276 276 272 270 268 266 265 262 260 260 258 258 256 257 257 256 254 255 250 249 244 245 246 245 246 246 244
293 293 303 308 302 302 309 308 317 318 316 316 314 305 300 288 282 274 270 268 268 267 265 262 259 258 258 258 257 253 254 253 254 251 248 247 248 244 245 246 245 242 242
Height
11023 11023 11022 11021 11020 11020 11019 11018 11017 11014 11014 11013 11010 11008 11006 11001 10997 10995 10992 10989 10987 10984 10981 10975 10973 10968 10965 10962 10957 10952 10949 10946 10943 10938 10934 10928 10925 10921 10917 10913 10909 10905 10900
11022 11023 11024 11023 11021 11020 11020 11018 11017 11014 11014 11013 11011 11009 11006 11005 11002 10999 10996 10994 10990 10988 10984 10980 10976 10970 10968 10964 10960 10955 10951 10948 10946 10943 10938 10934 10929 10925 10921 10917 10913 10909 10905
11021 11022 11023 11022 11021 11019 11018 11016 11016 11014 11014 11012 11010 11007 11006 11006 11006 11003 10999 10995 10992 10990 10986 10981 10977 10974 10969 10966 10961 10957 10954 10951 10947 10945 10942 10938 10935 10930 10925 10921 10917 10914 10910
11020 11021 11022 11021 11021 11020 11018 11017 11016 11015 11013 11011 11011 11009 11007 11006 11005 11003 10999 10995 10992 10991 10987 10984 10978 10974 10971 10967 10965 10960 10955 10953 10950 10948 10944 10941 10938 10935 10930 10926 10923 10919 10915
11019 11018 11019 11020 11020 11019 11018 11017 11016 11013 11012 11011 11010 11009 11008 11006 11004 11002 11000 10997 10995 10992 10988 10984 10980 10976 10973 10968 10966 10961 10957 10955 10954 10951 10947 10944 10942 10939 10936 10933 10929 10925 10920
11016 11015 11016 11017 11017 11016 11015 11015 11014 11012 11010 11009 11010 11008 11007 11005 11002 11000 10998 10996 10994 10991 10989 10985 10981 10977 10975 10973 10967 10963 10959 10957 10956 10954 10951 10948 10945 10944 10941 10937 10934 10930 10926
11013 11014 11014 11014 11014 11013 11013 11012 11012 11010 11009 11007 11006 11004 11003 11001 11001 10998 10995 10994 10991 10990 10989 10986 10982 10978 10976 10974 10970 10966 10962 10960 10959 10955 10952 10949 10948 10945 10944 10942 10938 10934 10930
11010 11010 11011 11011 11011 11010 11010 11009 11009 11008 11007 11006 11003 11002 11001 10998 10997 10997 10994 10992 10990 10989 10987 10985 10982 10979 10976 10974 10972 10968 10966 10961 10960 10956 10953 10952 10950 10947 10945 10944 10942 10938 10934
11005 11007 11007 11007 11007 11006 11006 11005 11005 11005 11004 11003 11001 11000 10999 10996 10994 10993 10993 10991 10988 10987 10985 10983 10980 10978 10978 10973 10969 10970 10968 10964 10961 10957 10955 10953 10951 10948 10947 10945 10944 10941 10938
10999 11000 11001 11001 11001 11001 11001 11000 11000 11001 11000 11001 10999 10998 10995 10993 10990 10989 10987 10987 10986 10985 10983 10981 10979 10978 10976 10974 10972 10970 10969 10966 10962 10960 10956 10953 10951 10949 10947 10945 10944 10943 10941
10993 10994 10995 10996 10996 10996 10996 10996 10997 10997 10996 10995 10994 10992 10989 10987 10986 10983 10984 10982 10980 10981 10980 10977 10976 10975 10974 10971 10972 10970 10968 10967 10963 10960 10958 10956 10952 10950 10947 10945 10944 10943 10942
10989 10988 10989 10990 10990 10991 10991 10991 10991 10992 10992 10992 10989 10984 10980 10979 10978 10976 10976 10977 10975 10973 10975 10973 10972 10970 10970 10970 10969 10967 10965 10965 10963 10960 10959 10956 10954 10950 10948 10945 10944 10942 10942
10985 10985 10985 10985 10985 10985 10984 10984 10985 10987 10988 10983 10977 10976 10975 10973 10970 10968 10969 10969 10968 10968 10968 10968 10967 10966 10968 10967 10964 10963 10963 10964 10961 10959 10957 10956 10954 10950 10949 10947 10944 10942 10941
10979 10979 10979 10980 10979 10978 10978 10978 10980 10983 10985 10979 10973 10969 10968 10965 10964 10961 10961 10961 10961 10961 10962 10960 10961 10960 10961 10962 10962 10959 10956 10959 10959 10958 10956 10954 10953 10951 10949 10949 10944 10941 10940
10976 10976 10976 10975 10975 10974 10974 10975 10976 10974 10975 10967 10961 10959 10957 10956 10956 10954 10954 10953 10953 10954 10953 10954 10954 10953 10954 10955 10957 10957 10955 10958 10954 10955 10955 10953 10951 10949 10948 10947 10945 10943 10939
10969 10969 10969 10969 10969 10968 10969 10969 10968 10965 10962 10959 10953 10953 10951 10947 10945 10947 10948 10948 10945 10946 10947 10947 10947 10947 10948 10948 10949 10951 10951 10950 10949 10949 10950 10951 10948 10947 10948 10945 10943 10941 10940
10963 10961 10960 10960 10959 10958 10960 10961 10959 10954 10953 10952 10950 10950 10946 10942 10938 10937 10939 10940 10940 10938 10939 10939 10939 10939 10940 10941 10941 10944 10945 10944 10943 10945 10946 10945 10945 10944 10944 10943 10940 10938 10937
10959 10957 10955 10953 10951 10949 10948 10948 10948 10945 10945 10943 10943 10940 10939 10936 10934 10930 10929 10931 10931 10931 10931 10930 10930 10930 10931 10931 10931 10933 10936 10937 10936 10939 10939 10941 10943 10941 10939 10939 10938 10936 10934
10948 10948 10947 10947 10945 10941 10939 10937 10934 10933 10931 10930 10928 10928 10928 10926 10924 10923 10921 10922 10921 10921 10921 10922 10921 10922 10921 10923 10922 10921 10924 10926 10928 10929 10931 10934 10936 10936 10934 10932 10933 10933 10932
10945 10942 10940 10937 10933 10930 10928 10927 10924 10919 10918 10917 10915 10913 10912 10912 10913 10913 10912 10911 10911 10911 10911 10910 10912 10912 10911 10912 10912 10912 10912 10912 10916 10918 10920 10923 10927 10928 10928 10926 10925 10928 10928
10938 10937 10936 10932 10924 10920 10915 10911 10910 10909 10906 10903 10901 10898 10897 10896 10897 10896 10897 10897 10896 10897 10901 10898 10900 10896 10898 10899 10897 10898 10899 10901 10900 10903 10907 10911 10915 10917 10919 10918 10918 10920 10922
10926 10923 10922 10920 10913 10911 10908 10903 10898 10895 10893 10889 10886 10886 10886 10883 10882 10881 10881 10881 10881 10883 10885 10884 10882 10881 10881 10883 10883 10884 10884 10885 10886 10886 10890 10896 10898 10904 10908 10910 10912 10912 10913
10910 10907 10908 10909 10909 10903 10899 10893 10888 10884 10881 10878 10874 10869 10867 10868 10867 10865 10864 10863 10864 10864 10864 10867 10862 10863 10862 10866 10865 10868 10867 10870 10871 10870 10871 10878 10881 10889 10891 10897 10901 10902 10903
10894 10890 10890 10892 10895 10895 10887 10883 10880 10876 10873 10869 10865 10860 10856 10851 10848 10845 10843 10843 10843 10842 10845 10849 10843 10840 10842 10847 10844 10848 10850 10852 10855 10856 10856 10859 10865 10871 10876 10881 10886 10890 10892
10877 10875 10872 10872 10871 10871 10869 10864 10865 10862 10857 10855 10854 10852 10850 10840 10830 10827 10823 10819 10818 10819 10821 10824 10824 10818 10821 10824 10827 10828 10829 10835 10836 10841 10840 10842 10849 10851 10857 10865 10869 10874 10878
10869 10861 10858 10857 10853 10851 10848 10846 10844 10841 10840 10834 10829 10824 10821 10818 10812 10806 10801 10797 10793 10792 10795 10797 10798 10799 10799 10800 10804 10808 10808 10815 10818 10819 10823 10825 10831 10834 10837 10845 10851 10856 10862